Regional Weather Roundup
Issued by NWS

Home | Current Version | Previous Version | Text Only | Print | Product List | Glossary Off
Versions: 1 2 3 4 5 6 7 8 9 10 11 12 13 14 15 16 17 18 19 20 21 22 23 24 25 26 27 28 29 30 31 32 33 34 35 36 37 38 39 40 41 42 43 44 45 46 47 48 49 50

000
ASUS43 KLOT 042221
RWRIL

ILLINOIS REGIONAL WEATHER ROUNDUP
NATIONAL WEATHER SERVICE CHICAGO/ROMEOVILLE IL
500 PM CDT TUE AUG 04 2015

NOTE: "FAIR" INDICATES FEW OR NO CLOUDS BELOW 12,000 FEET WITH NO
SIGNIFICANT WEATHER AND/OR OBSTRUCTIONS TO VISIBILITY.

* THESE STATIONS ARE NOT UNDER NWS QUALITY CONTROL. THEY ALSO MAY NOT
  REPORT WEATHER SUCH AS PRECIPITATION OR FOG.

ILZ001-002-007-009-015-016-024-042300-
NORTHWEST ILLINOIS

CITY           SKY/WX    TMP DP  RH WIND       PRES   REMARKS
MOLINE         CLOUDY    81  59  47 N7        29.95F HX  81
STERLING*      CLOUDY    82  59  44 N6        29.94F HX  82
SAVANNA*       PTSUNNY   82  53  36 N5        29.96S HX  81
$$

ILZ003-004-008-010-011-017-018-042300-
NORTH CENTRAL ILLINOIS

CITY           SKY/WX    TMP DP  RH WIND       PRES   REMARKS
ROCKFORD       PTSUNNY   80  51  36 NW12      29.98F HX  80
FREEPORT*      PTSUNNY   78  54  43 NW7       29.99S
ROCHELLE*      PTSUNNY   78  57  48 NW6       29.98F
DE KALB*       CLOUDY    78  56  46 NW8       29.99S
PERU*          CLOUDY    78  56  45 N7        29.97F
$$

ILZ005-006-012>014-019>023-042300-
NORTHEAST ILLINOIS

CITY           SKY/WX    TMP DP  RH WIND       PRES   REMARKS
CHICAGO-OHARE  PTSUNNY   80  53  39 NW10      29.96S HX  80
CHICAGO-MIDWAY CLOUDY    82  54  37 NW13      29.96S HX  81
AURORA         CLOUDY    77  56  48 NW9       29.98F
LANSING*       CLOUDY    79  52  38 W9        29.96F
JOLIET*        CLOUDY    82  55  40 NW6       29.96F HX  81
WAUKEGAN       MOSUNNY   76  56  49 VRB5      29.96F
DUPAGE AIRPORT CLOUDY    78  53  41 W10       29.97F
KANKAKEE*      CLOUDY    79  56  45 W9        29.99S HX  80
WHEELING       PTSUNNY   81  53  37 NW9       29.97F HX  80
MORRIS*        CLOUDY    78  58  49 W9        29.96F
ROMEOVILLE*    CLOUDY    78  53  42 NW7       29.96F
NORTHERLY ISL    N/A     77  60  55 E7          N/A
$$

LMZ740>746-042300-
SOUTHERN LAKE MICHIGAN

STATION/POSITION SKY/WX   TEMP    WIND        PRES    VSBY  WAVE
                          AIR SEA DIR/SP/G                  HT/PER
                          (F)     (DEG/KT/KT) (MB)    (MI)  (FT/S)
HARRISON CRIB              75     110/  8/  9   N/A
BURNHAM HARBOR             76      90/  8/ 13   N/A
CALUMET HARBOR             76      60/  8/ 10   N/A
BURNS HARBOR               76      40/  6/  7 1015.2S
MICHIGAN CITY              75      30/  3/  4   N/A
MICHIGAN CITY 6N           76 76   90/  2/  4   N/A           1
ST. JOSEPH                 75 75  280/  2/  4   N/A           1
$$

ILZ025>027-034>036-040-047-049-050-058-095>099-042300-
WEST-CENTRAL ILLINOIS

CITY           SKY/WX    TMP DP  RH WIND       PRES   REMARKS
QUINCY         CLOUDY    77  60  55 E6        29.98F
GALESBURG*       N/A    N/A N/A N/A MISG        N/A
MACOMB*        CLOUDY    78  60  53 S5        30.01S
JACKSONVILLE*  CLOUDY    79  65  62 CALM      29.98S HX  80
PITTSFIELD*    CLOUDY    77  66  67 NE5       29.99S
$$

ILZ028>032-037-038-041>044-048-051>054-059>061-042300-
CENTRAL ILLINOIS

CITY           SKY/WX    TMP DP  RH WIND       PRES   REMARKS
PONTIAC        PTSUNNY   78  63  60 NW6       29.98F HX  80
BLOOMINGTON    PTSUNNY   80  60  50 CALM      29.99F HX  81
DECATUR        CLOUDY    81  56  42 NE3       29.98F HX  81
PEORIA         CLOUDY    80  59  48 CALM      29.98S HX  81
LACON*         CLOUDY    78  61  57 CALM      29.96F
LINCOLN*       CLOUDY    82  58  43 S3        29.97S HX  82
SPRINGFIELD    PTSUNNY   81  64  56 N5        29.98F HX  82
TAYLORVILLE    PTSUNNY   75  68  78 S3        29.98F
$$

ILZ033-039-045-046-055>057-062-063-042300-
EAST-CENTRAL ILLINOIS

CITY           SKY/WX    TMP DP  RH WIND       PRES   REMARKS
CHAMPAIGN      PTSUNNY   79  59  50 NW5       29.99F HX  80
DANVILLE*      PTSUNNY   78  62  56 W7        29.95F HX  80
RANTOUL*       PTSUNNY   82  61  47 NW7       29.98F HX  83
MATTOON        CLOUDY    79  63  57 N5        29.98F HX  80
PARIS*         PTSUNNY   79  62  56 NW5       29.99F HX  80
$$

ILZ079-100>102-042300-
SOUTHWEST ILLINOIS

CITY           SKY/WX    TMP DP  RH WIND       PRES   REMARKS
ALTON          PTSUNNY   82  70  65 NE6       29.97S HX  86
BELLEVILLE     SUNNY     83  73  71 NE6       29.95R HX  90
CAHOKIA*       CLOUDY    86  70  58 NE9       29.95S HX  90
SPARTA*        CLOUDY    81  68  65 E10       29.97R HX  83
$$

ILZ064>066-069>071-074>076-080>082-084>086-088>090-092>094-042300-
SOUTH-CENTRAL ILLINOIS

CITY           SKY/WX    TMP DP  RH WIND       PRES   REMARKS
CARBONDALE     CLOUDY    81  68  64 NE8       29.96R HX  84
CAIRO*         PTSUNNY   88  73  61 CALM      29.94R HX  95
EFFINGHAM*     PTSUNNY   79  63  58 N5        30.01R HX  80
MARION         PTSUNNY   81  68  65 N14       29.97R HX  83
MT. VERNON     CLOUDY    72  64  78 N5        29.99F
CENTRALIA*     PTSUNNY   83  69  61 NE5       29.97F HX  87
SALEM*         PTSUNNY   84  69  60 E5        29.98S HX  87
METROPOLIS*    PTSUNNY   90  77  66 CALM      29.95S HX 103
$$

ILZ067-068-072-073-078-083-087-091-042300-
SOUTHEAST ILLINOIS

CITY           SKY/WX    TMP DP  RH WIND       PRES   REMARKS
LAWRENCEVILLE  CLOUDY    80  68  66 N13       29.98S HX  83
FLORA*         PTSUNNY   81  67  63 NE5       29.98F HX  83
FAIRFIELD*     TSTM      73  68  83 SW29      30.00R
HARRISBURG*    CLOUDY    76  65  70 NW7       29.98S
ROBINSON*      PTSUNNY   76  68  75 CALM      29.98F
CARMI*         TSTM      69  63  82 NE9       30.01R
$$

ABBREVIATIONS USED IN REMARKS
   TC - TEMPERATURE IN CELSIUS
  WCI - WIND CHILL INDEX
   HX - HEAT INDEX
  VSB - VISIBILITY
$$



USA.gov is the U.S. government's official web portal to all federal, state and local government web resources and services.